SCP
0 0 0 1 0 0 0 0 0 0 0 0 0 0 0 0 0 0 0 0 0 0 0 0 0 0 0 0 0 0 0 1 1 1 1 0 0 0 1 1 1 1 0 1 1 1 1 1 1
0 0 0 1 0 0 0 0 0 0 0 0 0 0 0 0 0 0 0 0 0 0 0 0 0 0 0 0 0 0 0 0 0 0 0 0 0 0 1 1 1 0 0 0 1 1 1 1 1
0 0 1 1 0 0 0 0 0 0 0 0 0 0 0 0 0 0 0 0 0 0 1 1 1 0 0 0 0 0 1 0 0 0 0 0 0 0 0 1 0 0 0 0 0 1 1 1 1
1 1 0 0 0 0 0 0 0 0 0 0 0 0 0 0 0 0 0 0 0 1 1 1 1 1 1 1 0 0 1 1 0 0 0 0 0 0 0 0 0 0 0 0 0 1 1 1 1
1 1 0 0 0 0 0 0 0 0 0 0 0 0 0 0 0 0 0 0 0 1 1 1 1 1 1 0 0 0 0 0 0 0 0 0 0 0 0 0 0 0 0 0 0 0 1 1 1
1 1 0 0 0 0 0 0 0 0 0 0 0 0 0 0 0 0 0 0 0 1 1 1 1 1 0 0 0 0 0 0 1 1 0 0 0 0 0 0 0 0 0 0 0 0 0 0 1
1 0 0 0 0 0 0 0 0 0 0 0 0 0 0 0 0 0 0 0 1 1 1 1 1 0 0 0 0 0 0 1 1 1 1 1 0 0 0 0 0 0 0 0 0 0 0 0 0
1 0 0 0 0 0 0 0 0 0 0 0 0 0 0 0 0 0 1 1 1 1 1 1 1 0 0 0 0 0 0 0 1 1 1 0 0 0 0 0 0 0 0 0 0 0 0 0 0
0 0 0 0 0 0 0 0 0 0 0 0 0 0 0 0 0 0 1 1 1 1 1 1 1 0 0 0 0 0 0 0 0 0 0 0 0 0 0 0 0 0 0 0 0 0 0 0 0
0 0 0 1 1 0 0 0 0 0 0 0 0 0 0 0 0 0 1 1 1 1 1 0 0 0 0 0 0 0 0 0 0 0 0 0 0 0 0 0 0 0 0 0 0 0 0 0 0
1 1 1 1 0 0 0 0 0 0 0 0 0 0 0 0 0 0 0 1 1 0 0 0 0 0 0 0 0 0 0 0 0 0 0 0 0 0 0 0 0 0 0 0 0 0 0 0 0
1 1 1 1 0 0 0 0 0 0 0 0 0 0 0 0 0 0 0 0 0 0 0 0 0 0 0 0 0 0 0 0 0 0 0 0 0 0 0 0 0 0 0 0 0 0 0 0 0
1 1 1 0 0 0 0 0 0 0 0 0 0 0 0 0 0 0 0 0 0 0 0 0 0 0 0 0 0 0 0 0 0 0 0 0 0 0 0 0 0 0 0 0 0 0 0 0 0
0 0 1 1 0 0 0 0 0 0 0 0 0 0 0 0 0 0 0 0 0 0 0 0 0 0 0 0 0 0 0 0 0 0 0 0 0 0 0 0 0 0 0 0 0 0 0 0 0
0 0 1 1 0 0 0 0 0 0 0 0 0 0 0 0 0 0 0 0 0 0 0 0 0 0 0 0 0 0 0 0 0 0 0 0 0 0 0 0 0 0 0 0 0 0 0 0 0
0 0 0 0 0 0 0 0 0 0 0 0 0 0 0 0 0 0 0 0 0 0 0 0 0 0 0 0 0 0 0 0 0 0 0 0 0 0 0 0 0 0 0 0 0 0 0 0 1
0 0 0 0 0 0 0 0 0 0 0 0 0 0 0 0 0 0 0 0 0 0 0 0 0 0 0 0 0 0 0 0 0 0 0 0 0 0 0 0 0 0 0 0 0 0 1 1 1
0 0 0 0 0 0 0 0 0 0 0 0 0 0 0 0 0 0 0 0 0 0 0 0 0 0 0 0 0 0 0 0 0 0 0 0 0 0 0 0 0 0 0 0 0 0 1 1 1
0 0 0 0 0 0 0 0 0 0 0 0 0 0 0 0 0 0 0 0 0 0 0 0 0 0 0 0 0 0 0 0 0 0 0 0 0 0 0 0 0 0 0 0 0 0 1 0 0
0 0 0 0 0 0 0 0 0 0 0 0 0 0 0 0 0 0 0 0 0 0 0 0 0 0 0 0 0 0 0 0 0 0 0 0 0 0 0 0 0 0 0 0 0 0 1 0 0
0 0 0 0 0 0 0 0 0 0 0 0 0 0 0 0 0 0 0 0 0 0 0 0 0 0 0 0 0 0 0 0 0 0 0 0 0 0 0 0 0 0 0 1 1 0 0 0 0
0 0 0 0 0 0 0 0 0 0 0 0 0 0 0 0 0 0 0 0 0 0 0 0 0 0 0 0 0 0 0 0 0 0 0 0 0 0 0 0 0 0 0 0 0 0 0 0 0
0 0 0 0 0 0 0 0 0 0 0 0 0 0 0 0 0 0 0 0 0 0 0 0 0 0 0 0 0 0 0 0 0 0 0 0 0 0 0 0 0 0 0 0 0 0 0 0 0
0 0 0 0 0 0 0 0 0 0 0 0 0 0 0 0 0 0 0 0 0 0 0 0 0 0 0 0 0 0 0 0 0 0 0 0 0 0 0 0 0 0 0 0 0 0 0 0 0
0 0 0 0 0 0 0 0 0 0 0 0 0 0 0 1 0 0 0 0 0 0 0 0 0 0 0 0 0 0 0 0 0 0 0 0 0 0 0 0 0 0 0 0 0 0 0 0 0
0 0 0 0 0 0 0 0 0 0 0 0 0 0 0 1 1 0 0 0 0 0 0 0 0 0 0 0 0 0 0 0 0 0 0 0 0 0 0 0 0 0 0 0 0 0 0 0 0
0 0 0 0 0 0 0 0 0 0 0 0 0 0 0 0 1 0 0 0 0 0 0 0 0 0 0 0 0 0 0 0 0 0 0 0 0 0 0 0 0 0 0 0 0 0 0 0 0
0 0 0 0 0 0 0 0 0 0 0 0 0 0 0 0 0 0 0 0 0 0 0 0 0 0 0 0 0 0 0 0 0 0 0 0 0 0 0 0 0 0 0 0 0 0 0 0 0
0 0 0 0 0 0 0 0 0 0 0 0 0 0 0 0 0 0 0 0 0 0 0 0 0 0 0 0 0 0 0 0 0 0 0 0 0 0 0 0 0 0 0 0 0 0 0 0 0
0 0 0 0 0 0 0 0 0 0 0 0 0 0 0 0 0 0 0 0 0 0 0 0 0 0 0 0 0 0 0 0 0 0 0 0 0 0 0 0 0 0 0 0 0 0 0 0 0
Wind_Speed
2 1 3 3 4 2 5 4 3 5 5 5 5 5 6 7 6 7 5 5 5 6 7 9 9 9 10 10 10 10 10 10 10 10 10 9 9 9 8 8 8 7 7 8 8 7 7 7 7
1 1 3 4 3 3 5 4 5 6 6 5 5 5 7 7 7 7 5 5 6 7 8 10 10 10 10 11 11 11 11 10 10 10 9 9 8 7 7 7 7 7 7 7 6 6 6 6 6
2 3 3 2 1 3 5 5 7 8 6 3 4 5 6 6 5 5 6 6 7 8 8 10 10 11 11 11 11 11 10 10 10 9 9 8 8 7 6 6 6 6 6 6 5 5 5 5 6
3 3 3 1 5 5 5 6 7 7 5 4 5 7 7 6 4 7 7 7 8 8 9 11 10 11 11 11 11 11 10 10 9 9 8 8 7 7 6 5 5 5 5 5 5 5 4 5 5
3 3 2 4 6 5 5 5 4 4 4 5 6 8 7 6 8 8 8 7 8 9 10 11 11 11 11 11 11 10 10 10 9 9 8 7 7 7 6 6 5 5 4 4 4 3 3 4 4
2 2 2 4 6 6 6 4 3 5 7 6 7 8 7 6 8 8 8 7 8 9 9 11 11 11 10 10 10 10 9 9 9 8 7 7 6 6 5 5 5 4 4 4 3 3 3 3 4
2 1 2 5 6 6 5 3 3 5 7 6 5 7 8 8 7 8 8 8 8 8 8 8 9 10 10 10 9 9 9 8 8 7 7 6 6 6 6 5 5 4 4 4 4 3 3 4 4
2 1 4 4 5 5 5 4 4 5 7 6 4 6 9 9 8 9 8 8 8 8 7 7 7 7 7 8 10 8 8 8 7 7 6 5 5 5 4 4 6 5 4 4 4 4 5 5 4
4 3 3 4 4 6 6 5 5 4 7 5 4 7 12 12 10 9 9 8 8 7 6 6 6 6 6 7 7 6 6 6 3 5 5 0 3 5 4 9 7 6 6 5 5 5 5 4 6
2 1 4 3 3 6 7 5 6 6 7 8 10 12 13 12 10 9 9 8 8 7 7 6 6 5 6 5 4 3 4 4 4 5 4 3 4 4 4 7 6 5 5 4 4 3 4 4 4
2 3 4 4 4 6 7 5 4 6 6 8 13 14 13 11 9 7 7 7 6 6 6 5 5 5 5 4 3 3 3 3 4 5 5 3 3 2 2 2 4 4 3 3 5 4 2 2 3
3 4 4 5 5 5 5 5 4 3 6 9 12 14 12 10 8 7 6 6 6 5 5 4 4 4 4 4 3 3 3 3 4 4 5 4 3 3 3 2 3 3 2 2 2 2 4 4 5
4 5 5 6 6 6 6 5 6 6 8 10 12 12 11 10 8 6 5 5 5 5 4 4 3 3 4 4 2 3 4 4 5 3 4 4 3 3 3 3 2 3 3 3 3 3 5 4 6
5 7 7 6 7 5 7 6 5 8 10 12 12 11 10 9 8 6 5 5 5 5 5 5 4 3 3 4 3 4 4 4 4 4 4 4 3 3 2 3 3 3 3 3 3 5 5 5 5
6 8 8 5 5 4 5 5 5 9 11 12 11 10 9 8 7 6 5 4 5 6 5 5 4 4 4 5 5 4 3 4 4 4 5 5 5 4 3 3 3 3 3 4 3 5 5 5 6
5 5 5 4 3 4 4 4 7 8 11 11 11 10 9 7 7 6 6 5 5 6 6 6 4 4 5 5 4 4 4 4 4 4 4 6 6 5 4 3 3 3 3 3 3 3 4 5 5
5 5 4 5 3 3 3 4 7 9 10 10 10 10 9 8 7 6 6 6 5 6 6 6 6 5 5 5 4 4 5 4 4 4 4 5 6 5 4 3 3 3 3 3 3 4 4 5 5
5 5 4 4 3 4 4 4 7 9 10 9 9 9 9 8 7 7 7 6 6 5 5 6 6 5 6 4 4 4 4 4 4 4 5 6 5 5 5 3 4 3 3 3 4 5 5 5 4
3 4 4 3 2 3 5 5 7 9 10 10 10 9 9 8 7 7 7 7 7 6 6 6 7 7 5 4 3 3 4 3 4 4 6 5 5 5 5 3 5 3 4 4 5 4 6 4 4
4 5 4 3 2 3 4 6 6 9 11 11 11 11 11 9 9 8 9 8 8 7 7 7 7 6 5 3 3 3 3 3 4 3 4 5 6 6 4 5 4 4 3 4 4 3 3 3 1
4 4 3 3 3 3 4 5 8 8 10 10 10 11 11 11 12 11 10 9 8 8 8 6 7 7 6 5 3 3 4 3 3 4 4 5 5 5 5 6 4 4 3 3 3 3 3 3 2
4 3 3 4 4 3 4 4 6 9 10 11 12 12 12 12 12 11 11 11 10 9 8 7 7 7 6 5 4 4 3 3 4 3 4 4 5 5 5 5 5 5 4 3 3 3 2 2 2
2 3 4 4 4 4 5 6 4 8 10 12 13 14 13 13 13 13 12 11 10 9 7 7 7 7 6 5 4 4 3 3 3 3 4 4 5 5 5 5 5 5 4 4 4 3 2 2 2
6 5 4 4 5 6 4 6 3 5 7 9 11 13 15 14 14 13 12 10 9 9 8 7 7 7 6 6 6 4 5 4 4 4 4 3 4 4 5 5 5 5 5 5 4 4 4 3 3
7 6 4 6 5 3 2 5 4 1 3 6 10 12 14 15 15 15 14 13 12 11 10 9 9 8 7 7 6 6 5 4 4 4 4 3 3 3 4 4 4 5 5 5 5 5 5 5 4
7 7 4 3 2 2 4 5 1 1 3 5 7 10 13 15 15 15 15 14 13 12 11 10 10 9 8 8 7 6 5 3 3 3 3 3 3 4 4 4 5 5 5 5 5 4 5 5 5
7 6 4 4 3 4 4 3 3 3 3 3 6 8 12 15 15 15 15 14 13 13 12 11 11 10 9 8 7 6 6 5 5 5 4 3 3 4 4 4 5 5 5 5 5 4 5 5 5
4 4 5 5 4 4 3 4 2 1 2 4 5 7 10 13 15 15 15 14 13 12 11 11 11 10 9 8 7 5 6 5 4 4 4 4 5 4 5 4 5 5 5 5 5 5 5 5 5
7 7 6 5 4 4 2 1 2 1 1 1 3 6 9 12 13 14 13 13 13 12 12 11 11 10 9 9 8 8 7 6 6 4 5 4 5 5 5 4 4 5 5 5 5 4 4 5 5
8 8 8 6 5 5 4 0 3 1 1 1 3 4 7 10 12 12 13 13 13 13 12 12 11 11 10 9 9 8 8 7 7 6 6 5 5 4 5 5 4 4 4 4 5 5 4 5 5
Wind_Direction
244 235 233 234 228 155 86 81 91 108 84 65 63 65 71 47 34 71 79 75 79 85 89 95 88 95 100 100 96 97 96 95 94 93 91 89 88 87 87 85 82 80 79 78 75 71 72 76 76
272 231 238 243 246 132 98 96 100 83 102 105 77 67 74 70 60 83 92 84 86 83 84 83 89 92 93 92 91 91 91 91 90 90 88 86 87 88 86 85 83 83 78 76 76 73 72 75 75
196 246 263 247 44 61 98 105 101 99 102 106 89 62 56 64 69 81 90 100 94 87 87 89 89 90 90 89 89 89 88 87 88 88 86 83 81 83 86 86 86 86 82 75 74 74 74 73 72
230 223 231 187 89 65 88 113 120 121 103 85 104 87 74 50 59 95 104 102 97 94 93 92 90 91 90 89 87 87 86 86 85 83 81 79 78 76 76 78 84 86 87 81 77 76 77 71 65
247 251 191 115 93 87 91 105 126 117 101 99 100 96 83 69 88 100 102 98 97 94 93 95 88 88 87 86 86 83 82 80 78 77 76 75 74 71 70 71 79 83 88 91 87 84 86 79 69
239 245 191 124 107 107 104 105 124 104 106 107 106 103 92 105 106 104 101 97 95 94 94 98 93 85 82 81 81 78 76 75 73 72 73 72 72 70 68 70 75 80 84 93 96 90 87 83 76
288 247 118 120 125 122 105 103 116 117 114 103 108 108 118 122 111 112 109 106 101 100 99 98 102 102 94 81 74 73 70 68 66 63 64 67 64 64 65 66 67 78 86 90 92 93 94 96 88
315 206 140 136 141 117 117 114 99 107 103 107 114 122 132 131 128 121 117 114 109 106 103 100 97 94 96 95 78 67 64 60 62 63 61 71 100 94 83 83 70 69 82 87 87 92 94 92 88
268 223 148 133 142 124 137 132 111 108 118 106 91 102 121 131 139 134 129 123 116 110 107 104 100 91 85 82 86 84 84 70 86 96 87 127 81 81 95 64 63 65 75 79 81 90 100 120 122
284 195 95 92 116 132 142 136 130 142 129 119 115 115 127 139 144 141 135 129 126 120 110 103 99 94 87 77 85 72 69 66 50 55 61 61 59 56 58 97 81 76 81 102 91 108 170 209 144
42 71 102 103 111 133 138 132 143 154 133 134 136 137 142 145 147 144 139 130 121 117 112 106 99 92 85 84 66 56 57 62 64 59 68 64 69 87 74 94 120 114 137 126 136 177 139 123 93
98 81 97 107 121 138 134 133 132 119 113 129 136 142 147 153 151 148 142 134 136 130 119 114 109 103 84 73 68 64 61 58 58 57 57 58 57 49 63 65 66 83 84 78 94 93 108 102 112
112 107 100 109 122 129 128 125 116 110 118 128 137 147 154 156 154 151 146 140 138 134 137 120 110 93 86 75 67 70 63 51 68 55 52 52 54 59 70 80 75 76 81 98 96 100 96 94 88
109 116 114 115 119 127 129 124 129 127 139 141 148 154 158 159 159 159 161 157 149 147 139 130 131 111 100 99 85 69 69 74 61 59 55 53 56 59 66 85 78 78 76 72 91 98 102 90 84
133 127 120 112 120 131 144 132 131 142 154 153 157 158 160 163 167 173 167 171 157 148 144 131 128 116 97 85 76 73 68 65 62 59 55 59 52 56 70 70 79 78 88 93 86 95 97 99 100
160 166 148 125 134 157 206 142 130 157 164 162 162 161 171 176 184 179 172 170 162 156 149 141 141 128 107 100 92 82 71 65 63 61 52 54 57 58 63 67 73 74 85 100 104 101 100 99 97
184 187 159 142 152 169 206 148 147 170 174 170 174 173 176 178 184 174 171 165 159 157 153 144 138 131 117 111 105 89 80 67 64 64 54 47 51 55 69 59 64 83 90 98 106 97 101 101 101
180 184 175 165 149 196 201 172 157 178 185 180 179 182 179 186 181 170 166 159 152 154 155 142 136 137 126 125 117 105 88 76 67 63 58 46 45 49 62 75 80 80 94 94 98 102 97 101 107
180 185 174 141 134 224 218 200 182 182 192 191 188 193 190 188 174 166 164 166 159 162 165 153 155 147 144 137 129 111 98 88 78 64 55 54 54 55 60 56 68 67 88 97 109 111 115 109 114
193 190 175 153 142 235 225 222 198 194 202 201 197 196 195 185 173 171 175 175 172 173 177 167 158 153 149 128 110 107 99 87 77 77 71 56 56 52 54 59 74 78 89 93 99 114 117 113 114
196 213 199 182 162 205 237 226 199 198 205 204 209 206 198 191 183 179 181 177 179 182 181 171 157 157 153 144 128 127 120 124 114 95 73 54 51 52 52 55 59 69 84 91 92 120 129 124 102
195 200 207 202 214 204 235 250 197 195 199 204 207 206 202 191 189 184 182 183 185 184 180 175 163 163 155 158 156 145 131 110 94 91 91 85 64 61 56 59 56 66 69 86 94 81 110 127 120
153 157 199 222 240 240 220 252 203 185 208 209 207 204 202 195 191 188 187 186 184 176 177 179 167 166 163 167 154 164 137 120 117 114 104 96 80 66 63 61 64 68 71 70 71 75 69 86 68
147 160 167 206 235 243 226 247 240 194 218 214 207 205 199 195 192 188 185 183 182 176 174 177 174 171 169 176 174 168 145 144 134 130 118 111 100 82 74 66 69 70 71 72 72 78 78 66 67
199 204 203 203 210 229 172 247 255 237 235 227 216 208 198 192 189 187 183 184 184 183 182 180 179 177 178 182 181 172 165 155 144 136 127 122 110 100 87 78 76 71 71 73 74 78 76 78 74
204 225 244 249 239 183 195 241 247 317 252 234 217 207 195 191 190 189 187 187 186 186 186 184 183 183 181 185 181 173 164 169 140 140 130 124 108 101 99 87 81 83 85 86 76 76 72 75 78
197 220 274 284 271 260 217 218 244 214 202 196 192 190 190 189 189 189 188 188 188 187 187 187 185 185 183 184 179 177 172 165 152 150 138 125 120 115 110 102 100 91 86 83 83 76 77 75 71
255 206 209 236 252 246 232 234 230 158 159 167 178 184 186 188 190 190 189 189 187 186 186 188 188 185 181 181 181 175 170 159 155 153 147 140 130 122 122 124 115 109 104 96 83 81 74 87 78
184 204 222 233 252 273 259 135 75 352 352 189 188 190 189 190 191 191 191 191 187 182 183 186 187 185 180 181 179 174 168 165 162 160 153 155 147 145 135 128 121 114 111 107 99 90 91 90 94
227 220 220 232 222 247 271 233 123 239 302 248 222 196 192 191 191 190 190 189 187 187 186 188 185 185 182 181 178 178 168 171 169 164 165 166 153 145 141 135 131 118 111 105 105 101 95 89 86